OneWeb SL0029

operational
NORAD ID: 45445 Int'l Des: 2020-020 Owner: ONEWEB Country: UK Constellation: oneweb
LEOCIRCULARPOLARONEWEB_TYPE

About OneWeb SL0029

Description loading...

Live Position

Loading 3D Globe...

Upcoming Passes

Altitude History

Altitude vs Time

uPlot chart will show altitude changes over time

Two-Line Element Set

1 45445U 20020X 26047.46808567 -.00000395 00000-0 -11508-2 0 9995
2 45445 87.8832 45.0776 0001739 82.0966 278.0359 13.11414084286838
Epoch: Feb 16, 2026 • Age: 6 hours

Current Status

Altitude 1229.7 km
Velocity 7.25 km/s
Sub-Earth Point 78.31°N, 169.44°E
Launch Date Mar 21, 2020
Age 5.9 years
Type internet

Technical Details

Classification Payload
Mass 148.00 kg
Dry Mass 140.00 kg
Total Mass 148.00 kg
Length 1.30 m
Diameter 1.00 m
Span 5.00 m
Shape Trapezoid+2 pan
Manufacturer ONEWUS
Bus Type ARROW
Phase Status In Orbit
Owner/State ONEWEB/UK

Large Constellations

Loading constellations...